Regional Weather Roundup
Issued by NWS

Home | Current Version | Previous Version | Graphics & Text | Print | Product List | Glossary On
Versions: 1 2 3 4 5 6 7 8 9 10 11 12 13 14 15 16 17 18 19 20 21 22 23 24 25 26 27 28 29 30 31 32 33 34 35 36 37 38 39 40 41 42 43 44 45 46 47 48 49 50
000
ASUS45 KTFX 252004
RWRMT
MONTANA HOURLY WEATHER ROUNDUP
NATIONAL WEATHER SERVICE GREAT FALLS MT
204 PM MDT SAT OCT 25 2014

NOTE: "FAIR" INDICATES FEW OR NO CLOUDS BELOW 12000 FEET WITH NO
SIGNIFICANT WEATHER AND/OR OBSTRUCTIONS TO VISIBILITY.

* THESE STATIONS ARE NOT UNDER NWS QUALITY CONTROL. THEY DO NOT
   REPORT WEATHER SUCH AS PRECIPITATION OR FOG.

MTZ001>007-043-252100-
WEST OF THE DIVIDE
CITY           SKY/WX    TMP DP  RH WIND       PRES   REMARKS
KALISPELL      CLOUDY    52  39  61 NE3       29.76F
MISSOULA       CLOUDY    48  45  89 CALM      29.82F
BUTTE          CLOUDY    64  32  30 S16       29.89F
MULLAN PASS    FOG       43  43 100 SW5       29.76F
* ESSEX        N/A       51  39  64 SE4        N/A
* LINCOLN      N/A       39  38  96 SE2        N/A
* LOOKOUT PASS N/A       42  40  93 S12G19     N/A
* POLSON       N/A       46  43  89 SE2        N/A
* RONAN APT    CLOUDY    46  45  96 N/A        N/A
* SEELEY LAKE  N/A       41  38  89 N/A        N/A
* THOMP F APT  CLOUDY    60  28  30 S14G23     N/A
$$

MTZ008-052>055-252100-
SOUTHWEST MONTANA
CITY           SKY/WX    TMP DP  RH WIND       PRES   REMARKS
BOZEMAN        SUNNY     54  43  67 E5        29.87F
DILLON         PTCLDY    63  39  41 N8        29.85F
W YELLOWSTONE  SUNNY     63  27  26 SW24G33   30.03F
* THREE FORKS  PTCLDY    45  25  45 N/A        N/A
* BOULDER HILL N/A       53  30  41 S12        N/A
* MONIDA PASS  N/A       59  28  31 S16G26     N/A
* RAYNOLDS PAS N/A       62  44  52 S24G31     N/A
* WHITEHALL    N/A       49  46  89 SW3        N/A
* WISE RIVER   N/A       46  38  74 W7         N/A
$$

MTZ009>010-012-014-046-048-049-054-252100-
EAST SLOPES AND CENTRAL MONTANA
CITY           SKY/WX    TMP DP  RH WIND       PRES   REMARKS
CUT BANK       CLOUDY    54  37  53 SE13      29.77F
GREAT FALLS    CLOUDY    55  43  64 E3        29.79F
HELENA         CLOUDY    52  41  66 N3        29.85F
MALMSTROM AFB  CLOUDY    55  41  59 NE9       29.81F
* CONRAD       CLOUDY    54  43  67 E8         N/A
* DEARBORN     N/A       55  41  59 S8         N/A
* EAST GLACIER N/A       46  36  68 S4         N/A
* MONARCH      N/A       65  19  17 S18G24     N/A
* PENDROY      N/A       50  39  66 S11        N/A
* SAINT MARY   N/A       48  35  61 W3         N/A
* SWEET GRASS  N/A       55  34  45 S24G30     N/A
$$

MTZ011-013-016-021-035-040-045-047-050-051-252100-
NORTH CENTRAL MONTANA
CITY           SKY/WX    TMP DP  RH WIND       PRES   REMARKS
HAVRE          PTSUNNY   68  37  32 E15       29.79F
LEWISTOWN      SUNNY     70  45  41 NW6       29.83F
* CHESTER      N/A       57  35  44 SE6G14     N/A
* DENTON       N/A       68  38  33 SE17       N/A
* GEYSER       N/A       61  40  46 VRB2       N/A
* JUDITH GAP   N/A       59  37  44 S14        N/A
* LOMA         N/A       62  41  46 E12        N/A
$$

MTZ017>020-022>027-061-062-252100-
NORTHEAST MONTANA
CITY           SKY/WX    TMP DP  RH WIND       PRES   REMARKS
GLASGOW        SUNNY     63  34  34 E17       29.92F
GLENDIVE       SUNNY     66  30  26 SE13G18   29.98F
JORDAN         SUNNY     66  34  31 SE13G21   29.90F
SIDNEY         SUNNY     64  32  30 E12       30.02F
WOLF POINT     SUNNY     66  34  31 SE8       29.96F
* BEAVER HILL  N/A       64  29  27 SE20       N/A
* CIRCLE       N/A       65  37  36 E11        N/A
* LINDSAY DVD  N/A       63  31  30 E18G29     N/A
* NAVAJO       N/A       59  27  29 SE9G16     N/A
$$

MTZ028>042-056>058-252100-
SOUTHCENTRAL AND SOUTHEAST MONTANA
CITY           SKY/WX    TMP DP  RH WIND       PRES   REMARKS
BAKER          SUNNY     66  34  31 SE17G26   29.99F
BILLINGS       SUNNY     59  36  42 E7        29.88F
LIVINGSTON     SUNNY     64  37  37 E8        29.86F
MILES CITY     SUNNY     70  36  29 SE15      29.91F
* LAUREL APT   SUNNY     59  36  42 NE8        N/A
* ROUNDUP APT  SUNNY     61  36  39 N/A        N/A
* ALZADA       N/A       66  36  33 E8         N/A
* LAME DEER    N/A       64  35  34 SE9        N/A
* REED POINT   N/A       61  36  39 W2         N/A
* ROSCOE HILL  N/A       72  27  19 SE8        N/A
$$

REGIONAL REPORTS...DAKOTAS
CITY           SKY/WX    TMP DP  RH WIND       PRES   REMARKS
WILLISTON      SUNNY     63  28  27 SE10      30.03F
DICKINSON      SUNNY     64  28  26 SE17      30.03F
BEACH          N/A       64  28  26 SE16G24   30.01F
CROSBY         CLOUDY    57  28  33 S9        30.05F
TIOGA          PTCLDY    59  27  29 S9G16     30.07F
BISMARCK       SUNNY     64  30  28 CALM      30.10F
GRAND FORKS    SUNNY     61  25  25 NW14G23   30.06S
FARGO          SUNNY     61  27  27 NW15      30.08F
BUFFALO SD     SUNNY     66  32  28 S18G28    29.95F
RAPID CITY     SUNNY     64  34  33 S17G23    30.05F
$$

REGIONAL REPORTS...WYOMING/IDAHO/WASHINGTON
CITY           SKY/WX    TMP DP  RH WIND       PRES   REMARKS
GILLETTE       SUNNY     73  34  24 S20       29.99F
SHERIDAN       SUNNY     66  36  33 N8        29.92F
CODY           SUNNY     70  36  29 N9        29.94F
YELLOWSTONE LA SUNNY     61  21  21 N/A       30.13F
SALMON         PTSUNNY   46  39  77 CALM      29.88F
MULLAN PASS    FOG       43  43 100 SW5       29.76S
SAND POINT     PTCLDY    55  41  59 NE14      29.64F
SPOKANE        CLOUDY    55  43  64 NE8       29.58F

$$




USA.gov is the U.S. government's official web portal to all federal, state and local government web resources and services.